Regional Weather Roundup
Issued by NWS Austin/San Antonio, TX

Home | Current Version | Previous Version | Text Only | Print | Product List | Glossary On
Versions: 1 2 3 4 5 6 7 8 9 10 11 12 13 14 15 16 17 18 19 20 21 22 23 24 25 26 27 28 29 30 31 32 33 34 35 36 37 38 39 40 41 42 43 44 45 46 47 48 49 50
000
ASUS44 KEWX 020611
RWREWX
SOUTH TEXAS REGIONAL WEATHER ROUNDUP
NATIONAL WEATHER SERVICE AUSTIN/SAN ANTONIO TX
1200 AM CST TUE MAR 02 2021

NOTE: "FAIR" INDICATED FEW OR NO CLOUDS BELOW 12,000 FEET WITH NO
SIGNIFICANT WEATHER AND/OR OBSTRUCTIONS TO VISIBILITY.

* - THESE STATIONS ARE NOT NWS OR FAA STATIONS...AND ARE NOT SUBJECT
    TO NWS AND FAA QUALITY CONTROL.

TXZ171-172-183>190-020700-
TEXAS HILL COUNTRY AND EDWARDS PLATEAU

CITY           SKY/WX    TMP DP  RH WIND       PRES   REMARKS
JUNCTION       CLEAR     45  30  55 N5        30.34F WCI  43
6HR MIN TEMP:  45; 6HR MAX TEMP:  51;

*LLANO         CLOUDY    46  36  66 NW6       30.32F WCI  43
BURNET         CLOUDY    49  41  74 CALM      30.33F
6HR MIN TEMP:  49; 6HR MAX TEMP:  50;

*HORSESHOE BAY CLOUDY    50  42  74 N3        30.32F
6HR MIN TEMP:  49; 6HR MAX TEMP:  51;

*LAGO VISTA    CLOUDY    47  42  81 N3        30.30F
6HR MIN TEMP:  47; 6HR MAX TEMP:  48;

*KERRVILLE     PTCLDY    42  38  84 N3        30.31F
6HR MIN TEMP:  42; 6HR MAX TEMP:  49;

*FREDERICKSBRG PTCLDY    44  36  72 N7        30.31F WCI  40
6HR MIN TEMP:  44; 6HR MAX TEMP:  48;

*ROCKSPRINGS   MOCLDY    43  34  70 N7        30.36S WCI  39
*BOERNE        CLOUDY    46  37  71 N6        30.29F WCI  43
*CASTROVILLE   MOCLDY    52  41  65 NW5       30.32S
HONDO          PTCLDY    50  38  63 N3        30.30F
6HR MIN TEMP:  50; 6HR MAX TEMP:  56;

*UVALDE        PTCLDY    45  40  82 NW5       30.35S WCI  42
6HR MIN TEMP:  45; 6HR MAX TEMP:  55;

DEL RIO        CLEAR     48  36  63 W7        30.35F WCI  45
6HR MIN TEMP:  48; 6HR MAX TEMP:  63;

*LAUGHLIN AFB  NOT AVBL
*SPOFFORD      NOT AVBL
*EAGLE PASS    NOT AVBL
CARRIZO SPRGS  MOCLDY    52  39  62 NW5       30.32F
*FAITH RANCH   CLEAR     52  39  62 N3        30.34S
$$

TXZ173-191>194-202-209-217>225-228-020700-
CENTRAL AND SOUTH CENTRAL TEXAS

CITY           SKY/WX    TMP DP  RH WIND       PRES   REMARKS
GEORGETOWN     CLOUDY    50  42  74 NW8       30.32F WCI  47
6HR MIN TEMP:  49; 6HR MAX TEMP:  50;

*TAYLOR        CLOUDY    49  45  84 N7        30.30S WCI  46
6HR MIN TEMP:  49; 6HR MAX TEMP:  50;

AUSTIN/BERGSTM CLOUDY    53  43  68 N12       30.29F
6HR MIN TEMP:  52; 6HR MAX TEMP:  54;

AUSTIN/MABRY   CLOUDY    52  41  66 N5        30.31F
6HR MIN TEMP:  52; 6HR MAX TEMP:  52;

*PFLUGERVILLE  CLOUDY    50  45  81 N3        30.30F
SAN MARCOS     CLOUDY    52  44  74 N10       30.30F
6HR MIN TEMP:  51; 6HR MAX TEMP:  52;

NEW BRAUNFELS  CLOUDY    53  41  63 N13       30.27F
6HR MIN TEMP:  53; 6HR MAX TEMP:  54;

*RANDOLPH AFB  CLOUDY    53  41  64 N12       30.27F
6HR MIN TEMP:  52; 6HR MAX TEMP:  53;

*SEGUIN        NOT AVBL
SAN ANTONIO    CLOUDY    53  39  59 NW12G20   30.29F
6HR MIN TEMP:  52; 6HR MAX TEMP:  53;

STINSON FIELD  CLOUDY    53  40  61 N9        30.27F
6HR MIN TEMP:  52; 6HR MAX TEMP:  54;

*KELLY FIELD   CLOUDY    54  40  61 N10       30.27F
6HR MIN TEMP:  53; 6HR MAX TEMP:  55;

*PLEASANTON    CLOUDY    55  41  59 N7        30.30F
6HR MIN TEMP:  55; 6HR MAX TEMP:  57;

*KENEDY        CLOUDY    53  43  69 N12       30.28F
6HR MIN TEMP:  53; 6HR MAX TEMP:  56;

*LA GRANGE     NOT AVBL
*GIDDINGS      DRIZZLE   47  46  94 N9G17     30.29F WCI  43
6HR MIN TEMP:  47; 6HR MAX TEMP:  49;

*GONZALES      NOT AVBL
$$

TXZ163>164-176>182-195>201-210>213-226-227-235-020700-
SOUTHEAST TEXAS

CITY           SKY/WX    TMP DP  RH WIND       PRES   REMARKS
COLLEGE STN    CLOUDY    48  45  89 N12       30.28S WCI  43
6HR MIN TEMP:  48; 6HR MAX TEMP:  50; 6HR PCP: TRACE;

*BRYAN         DRIZZLE   47  47 100 N7        30.29F WCI  44
6HR MIN TEMP:  47; 6HR MAX TEMP:  49; 6HR PCP:  0.02;

*CALDWELL      CLOUDY    47  46  95 N10       30.29F FOG     WCI  42
6HR MIN TEMP:  47; 6HR MAX TEMP:  48;

*CROCKETT      NOT AVBL
*BRENHAM       CLOUDY    49  47  94 N13       30.28S WCI  44
6HR MIN TEMP:  49; 6HR MAX TEMP:  53;

HUNTSVILLE     LGT RAIN  48  47  96 N7        30.26F FOG     WCI  45
6HR MIN TEMP:  48; 6HR MAX TEMP:  52; 6HR PCP:  0.01;

CONROE         LGT RAIN  49  46  90 N12       30.24S WCI  44
6HR MIN TEMP:  49; 6HR MAX TEMP:  52; 6HR PCP:  0.20;

HOUSTON BUSH   LGT RAIN  52  49  89 N13       30.21F
6HR MIN TEMP:  52; 6HR MAX TEMP:  57; 6HR PCP:  0.38;

HOUSTON HOBBY  LGT RAIN  53  50  89 N15       30.19F
6HR MIN TEMP:  53; 6HR MAX TEMP:  59; 6HR PCP:  0.53;

*HOUSTON SW AP DRIZZLE   53  51  95 N8        30.21F
6HR MIN TEMP:  53; 6HR MAX TEMP:  59; 6HR PCP:  0.45;

PEARLAND       LGT RAIN  53  50  89 N12G22    30.21S
6HR MIN TEMP:  53; 6HR MAX TEMP:  60; 6HR PCP:  0.11;

HOUSTON HOOKS  CLOUDY    51  48  89 N9        30.23S
6HR MIN TEMP:  51; 6HR MAX TEMP:  53; 6HR PCP:  0.34;

ELLINGTON FLD  RAIN      52  50  93 N17       30.19F
SUGAR LAND     LGT RAIN  53  50  89 N14       30.21S
6HR MIN TEMP:  53; 6HR MAX TEMP:  57; 6HR PCP:  0.61;

*HOUSTON EXEC  CLOUDY    50  50 100 N15         N/A  WCI  45
*CLEVELAND MUN DRIZZLE   49  49  97 N6        30.23F WCI  47
6HR MIN TEMP:  49; 6HR MAX TEMP:  53; 6HR PCP:  0.30;

*WHARTON       CLOUDY    49  48  98 N15G22    30.24S WCI  43
6HR MIN TEMP:  49; 6HR MAX TEMP:  53; 6HR PCP:  0.37;

*COLUMBUS      CLOUDY    49  47  92 N12G18    30.27S WCI  44
6HR MIN TEMP:  48; 6HR MAX TEMP:  52;

*EAGLE LAKE    CLOUDY    49  47  93 N13G20    30.25S WCI  44
6HR MIN TEMP:  49; 6HR MAX TEMP:  53;

$$

TXZ214>216-236>238-020700-
THE UPPER TEXAS COAST

CITY           SKY/WX    TMP DP  RH WIND       PRES   REMARKS
*ORANGE        RAIN      55  52  92 N12       30.17R
6HR MIN TEMP:  55; 6HR MAX TEMP:  61; 6HR PCP:  0.16;

PORT ARTHUR    HVY RAIN  52  52 100 N20G29    30.13F FOG
6HR MIN TEMP:  53; 6HR MAX TEMP:  59; 6HR PCP:  0.15;

GALVESTON      LGT RAIN  55  52  89 N26       30.16F
6HR MIN TEMP:  55; 6HR MAX TEMP:  61; 6HR PCP:  0.28;

ANGLETON       RAIN      53  50  89 N14       30.18S FOG
6HR MIN TEMP:  53; 6HR MAX TEMP:  61; 6HR PCP:  0.73;

*BAY CITY      RAIN      52  51  97 N13G21    30.20S
PALACIOS       LGT RAIN  50  49  96 N23       30.20F WCI  43
6HR MIN TEMP:  50; 6HR MAX TEMP:  54; 6HR PCP:  0.40;

$$

TXZ229>234-239>247-020700-
TEXAS COASTAL BEND AND RIO GRANDE PLAINS

CITY           SKY/WX    TMP DP  RH WIND       PRES   REMARKS
VICTORIA       CLOUDY    50  47  89 N16G23    30.24F WCI  44
6HR MIN TEMP:  50; 6HR MAX TEMP:  54;

*BEEVILLE      CLOUDY    54  49  82 N14G22    30.25F
6HR MIN TEMP:  54; 6HR MAX TEMP:  56;

ROCKPORT       CLOUDY    51  49  92 N18G26    30.22F
6HR MIN TEMP:  51; 6HR MAX TEMP:  55; 6HR PCP:  0.07;

*PORT ARANSAS  CLOUDY    52  50  92 N22G28    30.23F
6HR MIN TEMP:  52; 6HR MAX TEMP:  55; 6HR PCP:  0.11;

*PORT LAVACA   DRIZZLE   52  49  89 N15G23    30.23F
6HR MIN TEMP:  52; 6HR MAX TEMP:  56; 6HR PCP:  0.27;

*INGLESIDE     CLOUDY    52  49  89 N16       30.22S
CORPUS CHRISTI CLOUDY    52  48  86 N21       30.24S
6HR MIN TEMP:  52; 6HR MAX TEMP:  54; 6HR PCP:  0.03;

CORPUS NAS     CLOUDY    53  48  83 N26G36    30.22F
6HR MIN TEMP:  53; 6HR MAX TEMP:  56; 6HR PCP:  0.15;

*ROBSTOWN      MOCLDY    56  50  81 N14       30.25S
6HR MIN TEMP:  56; 6HR MAX TEMP:  57;

ALICE          CLOUDY    55  45  68 N18G26    30.24F
6HR MIN TEMP:  55; 6HR MAX TEMP:  57;

KINGSVILLE NAS CLOUDY    54  48  80 N15       30.24F
6HR MIN TEMP:  54; 6HR MAX TEMP:  55; 6HR PCP:  0.02;

COTULLA        CLOUDY    57  41  55 N9        30.30F
6HR MIN TEMP:  57; 6HR MAX TEMP:  60;

LAREDO         CLOUDY    57  42  57 N15



USA.gov is the U.S. government's official web portal to all federal, state and local government web resources and services.